Location: Central Falls
(41.8900°N, 71.3929°W)
Time: 11:36:25
(UTC+00:00)

A-11 Canister half - Pass Details

Date: 10 December 2023
Orbit: 1526 x 1682 km, 47.3° (Epoch: 20 February)

Event Time Altitude Azimuth Distance (km) Brightness Sun altitude
Rises 04:49:20 0° 297° (WNW) 4,921 - -70.9°
Reaches altitude 10° 04:52:35 10° 294° (WNW) 3,918 - -70.8°
Maximum altitude 05:02:18 58° 219° (SW) 1,847 - -70.3°
Drops below altitude 10° 05:11:43 10° 143° (SE) 3,792 - -69.7°
Sets 05:14:48 0° 139° (SE) 4,754 - -69.5°
